Regional Weather Roundup
Issued by NWS

Home | Current Version | Previous Version | Graphics & Text | Print | Product List | Glossary On
Versions: 1 2 3 4 5 6 7 8 9 10 11 12 13 14 15 16 17 18 19 20 21 22 23 24 25 26 27 28 29 30 31 32 33 34 35 36 37 38 39 40 41 42 43 44 45 46 47 48 49 50
758
ASUS45 KBOU 270007
RWRCO

WEATHER ROUNDUP FOR COLORADO
NATIONAL WEATHER SERVICE DENVER/BOULDER CO
600 PM MDT TUE JUL 26 2016

NOTE: "FAIR" INDICATES FEW OR NO CLOUDS BELOW 12000 FEET WITH NO
SIGNIFICANT WEATHER AND/OR OBSTRUCTIONS TO VISIBILITY.

COZ001>005-013-030-031-270100-
...NORTHWEST COLORADO...

CITY           SKY/WX    TMP DP  RH WIND       PRES   REMARKS
CRAIG          FAIR      76  42  29 SE8       30.25F
HAYDEN         FAIR      73  39  29 CALM      30.27F
MEEKER         FAIR      78  42  27 E7        30.27S
MOUNT WERNER   NOT AVBL
STEAMBOAT SPGS FAIR      73  40  30 E9        30.30S
WALDEN         CLOUDY    70  34  26 S16G22    30.41S
$$

COZ006>008-011-270100-
...WEST CENTRAL VALLEYS...

CITY           SKY/WX    TMP DP  RH WIND       PRES   REMARKS
GRAND JUNCTION PTSUNNY   87  45  23 E17G26    30.09R
MONTROSE       FAIR      89  39  17 W10       30.17S
EAGLE          SUNNY     81  37  21 W7        30.30R
RIFLE          FAIR      87  42  20 E12       30.15S
DELTA          FAIR      93  40  16 CALM      30.12S
NUCLA          FAIR     N/A N/A N/A NW3       30.20S
$$

COZ017>023-064>068-270100-
...SOUTHWEST COLORADO...

CITY           SKY/WX    TMP DP  RH WIND       PRES   REMARKS
DURANGO        FAIR      80  45  28 E15G22    30.23S
CORTEZ         FAIR      91  39  16 N12G17    30.15S
PAGOSA SPRINGS PTSUNNY   68  48  48 N3        30.36S
TELLURIDE      FAIR      75  33  22 N5        30.45S
WOLF CREEK PAS DRIZZLE   48  37  66 E16       30.71S
$$

COZ009-010-012-014-032>034-037-058>063-270100-
...CENTRAL COLORADO...

CITY           SKY/WX    TMP DP  RH WIND       PRES   REMARKS
ASPEN          PTSUNNY   73  38  27 NW15G22   30.40R
BUENA VISTA    FAIR      76  31  19 N3        30.37S
COPPER MTN     CLOUDY    54  34  47 NW30G36   30.73R
BERTHOUD PASS  LGT RAIN  46  32  57 E16G24    30.75S
COTTONWOOD PAS CLOUDY    70  30  23 CALM      30.54S
GUNNISON       PTSUNNY   75  43  31 N6        30.36R
KREMMLING      CLOUDY    72  34  25 N18G31    30.39R
LEADVILLE      CLOUDY    62  33  33 N25G38    30.56R
MONARCH PASS   CLOUDY    55  32  41 MISG      30.80S
SALIDA         FAIR      77  40  26 SE16G25   30.41S
SUNLIGHT       FAIR      63  39  42 MISG      30.64S
WILKERSON PASS CLOUDY    59  34  38 S5        30.67S
$$

COZ069>075-270100-
...SAN LUIS VALLEY/SANGRE DE CRISTO MOUNTAINS...

CITY           SKY/WX    TMP DP  RH WIND       PRES   REMARKS
ALAMOSA        FAIR      74  44  34 N14       30.33S
LA VETA PASS   PTSUNNY   59  41  51 NW10G16   30.56R
SAGUACHE       CLOUDY    70  46  43 S7        30.40R
$$

COZ035-036-038>040-270100-
...NORTHERN COLORADO FRONT RANGE...

CITY           SKY/WX    TMP DP  RH WIND       PRES   REMARKS
DENVER INTL AP PTSUNNY   89  39  17 SE5       30.12F
DMNS CITY PARK   N/A     85  42  21 W9        30.12S
AURORA         PTSUNNY   87  38  18 SW7       30.15S
FRONT RANGE AP PTSUNNY   90  43  19 SE8       30.14F
ERIE MUNI ARPT FAIR      87  36  16 W5        30.10S
BOULDER MUN AP FAIR      86  39  19 SW6       30.11F
CENTENNIAL     PTSUNNY   86  31  13 W6        30.17S
BROOMFIELD     PTSUNNY   86  36  16 W6        30.15F
LONGMONT       FAIR      88  40  18 W5        30.11S
$$

COZ041-046-047-076>085-087-088-270100-
...PIKES PEAK/PALMER DIVIDE AND SOUTHERN FOOTHILLS...

CITY           SKY/WX    TMP DP  RH WIND       PRES   REMARKS
COLO. SPRINGS  PTSUNNY   82  43  25 S17       30.24R
A. F. ACADEMY  PTSUNNY   82  39  21 S7        30.23S
SCHRIEVER AFB  NOT AVBL
ELLICOTT       FAIR     N/A N/A N/A W8        30.21R
FALCON         FAIR      82  36  19 CALM      30.29S
FORT CARSON    PTSUNNY   81  46  28 SE12      30.20R
LIMON          NOT AVBL
MONUMENT HILL  FAIR      81  36  19 W3        30.30S
TRINIDAD       NOT AVBL
$$

COZ042>045-048>051-090-091-270100-
...NORTHEAST COLORADO...

CITY           SKY/WX    TMP DP  RH WIND       PRES   REMARKS
GREELEY ARPT   FAIR      88  48  25 E8        30.08S
AKRON          FAIR      80  52  37 SE23G30   30.08F
BURLINGTON     FAIR      86  60  41 S8        30.07R
WRAY           NOT AVBL
STERLING       PTSUNNY   82  55  39 SW10      30.03R
HOLYOKE        FAIR      84  66  54 W12       29.99F
FORT MORGAN    PTSUNNY   74  55  50 NE21G31   30.11R
$$

COZ086-089-092>099-270100-
...SOUTHEAST COLORADO...

CITY           SKY/WX    TMP DP  RH WIND       PRES   REMARKS
PUEBLO         FAIR      88  46  23 NW14      30.10R
LA JUNTA       FAIR      92  57  30 NE9       30.01S
LAMAR          FAIR      94  55  26 SE16      29.97F
SPRINGFIELD      N/A     91  57  31 E16       30.05S
$$




USA.gov is the U.S. government's official web portal to all federal, state and local government web resources and services.